Time,TemperatureF,DewpointF,PressureIn,WindDirection,WindDirectionDegrees,WindSpeedMPH,WindSpeedGustMPH,Humidity,HourlyPrecipIn,Conditions,Clouds,dailyrainin,SoftwareType,DateUTC
2013-01-13 00:05:00,-13.0,-21.7,29.37,SE,135,0.0,-999.0,64,-99.99,,,0.00,Acu-Link.com,2013-01-13 07:05:00,
2013-01-13 00:20:00,-12.6,-21.3,29.36,SSW,202,0.0,-999.0,64,-99.99,,,0.00,Acu-Link.com,2013-01-13 07:20:00,
2013-01-13 00:35:00,-12.3,-20.7,29.37,ENE,67,0.0,-999.0,65,-99.99,,,0.00,Acu-Link.com,2013-01-13 07:35:00,
2013-01-13 00:51:00,-9.2,-16.6,29.37,SSW,202,0.0,-999.0,69,-99.99,,,0.00,Acu-Link.com,2013-01-13 07:51:00,
2013-01-13 01:06:00,-7.4,-14.3,29.37,West,270,0.0,-999.0,71,-99.99,,,0.00,Acu-Link.com,2013-01-13 08:06:00,
2013-01-13 01:21:00,-4.5,-11.8,29.37,WSW,247,0.0,-999.0,70,-99.99,,,0.00,Acu-Link.com,2013-01-13 08:21:00,
2013-01-13 01:36:00,-3.5,-11.7,29.37,West,270,0.0,-999.0,67,-99.99,,,0.00,Acu-Link.com,2013-01-13 08:36:00,
2013-01-13 01:52:00,-3.5,-12.0,29.37,NNW,337,0.0,-999.0,66,-99.99,,,0.00,Acu-Link.com,2013-01-13 08:52:00,
2013-01-13 02:09:00,-3.5,-12.3,29.37,South,180,0.0,-999.0,65,-99.99,,,0.00,Acu-Link.com,2013-01-13 09:09:00,
2013-01-13 02:24:00,-3.3,-12.4,29.37,West,270,0.0,-999.0,64,-99.99,,,0.00,Acu-Link.com,2013-01-13 09:24:00,
2013-01-13 02:39:00,-3.5,-13.2,29.37,West,270,0.0,-999.0,62,-99.99,,,0.00,Acu-Link.com,2013-01-13 09:39:00,
2013-01-13 02:55:00,-4.0,-14.0,29.37,West,270,0.0,-999.0,61,-99.99,,,0.00,Acu-Link.com,2013-01-13 09:55:00,
2013-01-13 03:10:00,-4.7,-14.4,29.37,West,270,0.0,-999.0,62,-99.99,,,0.00,Acu-Link.com,2013-01-13 10:10:00,
2013-01-13 03:25:00,-5.8,-15.4,29.37,West,270,0.0,-999.0,62,-99.99,,,0.00,Acu-Link.com,2013-01-13 10:25:00,
2013-01-13 03:41:00,-6.3,-15.9,29.35,NE,45,0.0,-999.0,62,-99.99,,,0.00,Acu-Link.com,2013-01-13 10:41:00,
2013-01-13 03:56:00,-7.1,-16.6,29.35,SW,225,0.0,-999.0,62,-99.99,,,0.00,Acu-Link.com,2013-01-13 10:56:00,
2013-01-13 04:11:00,-7.4,-16.3,29.35,North,0,0.0,-999.0,64,-99.99,,,0.00,Acu-Link.com,2013-01-13 11:11:00,
2013-01-13 04:27:00,-8.0,-16.9,29.37,SW,225,0.0,-999.0,64,-99.99,,,0.00,Acu-Link.com,2013-01-13 11:27:00,
2013-01-13 04:42:00,-8.3,-16.9,29.37,West,270,0.0,-999.0,65,-99.99,,,0.00,Acu-Link.com,2013-01-13 11:42:00,
2013-01-13 04:57:00,-6.9,-15.5,29.36,NW,315,0.0,-999.0,65,-99.99,,,0.00,Acu-Link.com,2013-01-13 11:57:00,
2013-01-13 05:12:00,-6.7,-15.0,29.35,West,270,0.0,-999.0,66,-99.99,,,0.00,Acu-Link.com,2013-01-13 12:12:00,
2013-01-13 05:28:00,-7.1,-15.4,29.37,West,270,0.0,-999.0,66,-99.99,,,0.00,Acu-Link.com,2013-01-13 12:28:00,
2013-01-13 05:43:00,-7.2,-15.5,29.37,WSW,247,0.0,-999.0,66,-99.99,,,0.00,Acu-Link.com,2013-01-13 12:43:00,
2013-01-13 05:58:00,-7.2,-15.5,29.38,NNW,337,0.0,-999.0,66,-99.99,,,0.00,Acu-Link.com,2013-01-13 12:58:00,
2013-01-13 06:14:00,-7.1,-15.1,29.38,West,270,0.0,-999.0,67,-99.99,,,0.00,Acu-Link.com,2013-01-13 13:14:00,
2013-01-13 06:29:00,-6.3,-14.1,29.39,NW,315,0.0,-999.0,68,-99.99,,,0.00,Acu-Link.com,2013-01-13 13:29:00,
2013-01-13 06:44:00,-6.5,-14.5,29.40,North,0,0.0,-999.0,67,-99.99,,,0.00,Acu-Link.com,2013-01-13 13:44:00,
2013-01-13 07:00:00,-6.9,-14.9,29.40,West,270,0.0,-999.0,67,-99.99,,,0.00,Acu-Link.com,2013-01-13 14:00:00,
2013-01-13 07:15:00,-7.1,-14.8,29.41,SW,225,0.0,-999.0,68,-99.99,,,0.00,Acu-Link.com,2013-01-13 14:15:00,
2013-01-13 07:30:00,-7.1,-15.4,29.41,West,270,0.0,-999.0,66,-99.99,,,0.00,Acu-Link.com,2013-01-13 14:30:00,
2013-01-13 07:45:00,-5.4,-13.5,29.42,West,270,0.0,-999.0,67,-99.99,,,0.00,Acu-Link.com,2013-01-13 14:45:00,
2013-01-13 08:01:00,-3.3,-11.2,29.43,ENE,67,0.0,-999.0,68,-99.99,,,0.00,Acu-Link.com,2013-01-13 15:01:00,
2013-01-13 08:16:00,-2.4,-12.5,29.43,ESE,112,0.0,-999.0,61,-99.99,,,0.00,Acu-Link.com,2013-01-13 15:16:00,
2013-01-13 08:31:00,0.9,-9.0,29.45,NE,45,0.0,-999.0,62,-99.99,,,0.00,Acu-Link.com,2013-01-13 15:31:00,
2013-01-13 08:47:00,1.6,-9.4,29.43,East,90,0.0,-999.0,59,-99.99,,,0.00,Acu-Link.com,2013-01-13 15:47:00,
2013-01-13 09:02:00,3.6,-9.7,29.44,ENE,67,0.0,-999.0,53,-99.99,,,0.00,Acu-Link.com,2013-01-13 16:02:00,
2013-01-13 09:17:00,3.0,-9.8,29.42,ENE,67,0.0,-999.0,54,-99.99,,,0.00,Acu-Link.com,2013-01-13 16:17:00,
2013-01-13 09:33:00,4.6,-8.7,29.43,NNE,22,0.0,-999.0,53,-99.99,,,0.00,Acu-Link.com,2013-01-13 16:33:00,
2013-01-13 09:48:00,5.0,-9.1,29.42,SSW,202,0.0,-999.0,51,-99.99,,,0.00,Acu-Link.com,2013-01-13 16:48:00,
2013-01-13 10:03:00,5.4,-8.8,29.43,ENE,67,1.1,-999.0,51,-99.99,,,0.00,Acu-Link.com,2013-01-13 17:03:00,
2013-01-13 10:18:00,6.1,-7.7,29.42,ENE,67,0.0,-999.0,52,-99.99,,,0.00,Acu-Link.com,2013-01-13 17:18:00,
2013-01-13 10:34:00,4.3,-9.4,29.44,East,90,0.0,-999.0,52,-99.99,,,0.00,Acu-Link.com,2013-01-13 17:34:00,
2013-01-13 10:49:00,4.8,-8.2,29.44,ESE,112,0.0,-999.0,54,-99.99,,,0.00,Acu-Link.com,2013-01-13 17:49:00,
2013-01-13 11:04:00,4.8,-8.5,29.41,NNE,22,0.0,-999.0,53,-99.99,,,0.00,Acu-Link.com,2013-01-13 18:04:00,
2013-01-13 11:20:00,6.3,-7.9,29.40,ENE,67,0.0,-999.0,51,-99.99,,,0.00,Acu-Link.com,2013-01-13 18:20:00,
2013-01-13 11:35:00,9.5,-6.6,29.39,ESE,112,0.0,-999.0,47,-99.99,,,0.00,Acu-Link.com,2013-01-13 18:35:00,
2013-01-13 11:50:00,6.8,-9.1,29.39,ENE,67,0.0,-999.0,47,-99.99,,,0.00,Acu-Link.com,2013-01-13 18:50:00,
2013-01-13 12:06:00,8.6,-7.5,29.39,East,90,1.7,-999.0,47,-99.99,,,0.00,Acu-Link.com,2013-01-13 19:06:00,
2013-01-13 12:21:00,6.8,-8.3,29.38,NE,45,0.0,-999.0,49,-99.99,,,0.00,Acu-Link.com,2013-01-13 19:21:00,
2013-01-13 12:36:00,6.1,-7.7,29.38,East,90,1.7,-999.0,52,-99.99,,,0.00,Acu-Link.com,2013-01-13 19:36:00,
2013-01-13 12:51:00,4.5,-7.7,29.38,NE,45,1.7,-999.0,56,-99.99,,,0.00,Acu-Link.com,2013-01-13 19:51:00,
2013-01-13 13:07:00,3.2,-7.9,29.40,East,90,2.2,-999.0,59,-99.99,,,0.00,Acu-Link.com,2013-01-13 20:07:00,
2013-01-13 13:22:00,2.8,-7.6,29.39,SSE,157,0.0,-999.0,61,-99.99,,,0.00,Acu-Link.com,2013-01-13 20:22:00,
2013-01-13 13:37:00,3.2,-7.2,29.40,North,0,0.0,-999.0,61,-99.99,,,0.00,Acu-Link.com,2013-01-13 20:37:00,
2013-01-13 13:53:00,1.8,-7.8,29.42,NNW,337,0.0,-999.0,63,-99.99,,,0.00,Acu-Link.com,2013-01-13 20:53:00,
2013-01-13 14:08:00,1.4,-7.9,29.40,ENE,67,0.0,-999.0,64,-99.99,,,0.00,Acu-Link.com,2013-01-13 21:08:00,
2013-01-13 14:23:00,1.9,-7.1,29.42,ESE,112,0.0,-999.0,65,-99.99,,,0.00,Acu-Link.com,2013-01-13 21:23:00,
2013-01-13 14:39:00,2.3,-6.7,29.41,ENE,67,0.0,-999.0,65,-99.99,,,0.00,Acu-Link.com,2013-01-13 21:39:00,
2013-01-13 14:54:00,1.4,-7.9,29.42,NNW,337,0.0,-999.0,64,-99.99,,,0.00,Acu-Link.com,2013-01-13 21:54:00,
2013-01-13 15:09:00,0.9,-7.8,29.44,ESE,112,0.0,-999.0,66,-99.99,,,0.00,Acu-Link.com,2013-01-13 22:09:00,
2013-01-13 15:24:00,0.5,-8.1,29.45,ENE,67,0.0,-999.0,66,-99.99,,,0.00,Acu-Link.com,2013-01-13 22:24:00,
2013-01-13 15:40:00,-0.6,-9.2,29.43,SSE,157,0.0,-999.0,66,-99.99,,,0.00,Acu-Link.com,2013-01-13 22:40:00,
2013-01-13 15:55:00,-0.2,-8.5,29.46,SE,135,0.0,-999.0,67,-99.99,,,0.00,Acu-Link.com,2013-01-13 22:55:00,
2013-01-13 16:10:00,-0.8,-9.1,29.46,East,90,0.0,-999.0,67,-99.99,,,0.00,Acu-Link.com,2013-01-13 23:10:00,
2013-01-13 16:26:00,-1.7,-9.9,29.45,East,90,0.0,-999.0,67,-99.99,,,0.00,Acu-Link.com,2013-01-13 23:26:00,
2013-01-13 16:41:00,-2.0,-9.9,29.46,NE,45,0.0,-999.0,68,-99.99,,,0.00,Acu-Link.com,2013-01-13 23:41:00,
2013-01-13 16:56:00,-2.4,-10.3,29.46,East,90,0.0,-999.0,68,-99.99,,,0.00,Acu-Link.com,2013-01-13 23:56:00,
2013-01-13 17:12:00,-2.9,-10.8,29.46,ENE,67,0.0,-999.0,68,-99.99,,,0.00,Acu-Link.com,2013-01-14 00:12:00,
2013-01-13 17:27:00,-3.6,-11.5,29.47,SE,135,0.0,-999.0,68,-99.99,,,0.00,Acu-Link.com,2013-01-14 00:27:00,
2013-01-13 17:42:00,-4.0,-11.9,29.48,SE,135,0.0,-999.0,68,-99.99,,,0.00,Acu-Link.com,2013-01-14 00:42:00,
2013-01-13 17:57:00,-4.0,-11.9,29.47,SSE,157,0.0,-999.0,68,-99.99,,,0.00,Acu-Link.com,2013-01-14 00:57:00,
2013-01-13 18:13:00,-4.2,-12.0,29.49,NE,45,0.0,-999.0,68,-99.99,,,0.00,Acu-Link.com,2013-01-14 01:13:00,
2013-01-13 18:28:00,-4.2,-12.0,29.47,South,180,0.0,-999.0,68,-99.99,,,0.00,Acu-Link.com,2013-01-14 01:28:00,
2013-01-13 18:43:00,-4.4,-12.2,29.47,SSE,157,0.0,-999.0,68,-99.99,,,0.00,Acu-Link.com,2013-01-14 01:43:00,
2013-01-13 18:58:00,-5.1,-12.9,29.50,SSW,202,0.0,-999.0,68,-99.99,,,0.00,Acu-Link.com,2013-01-14 01:58:00,
2013-01-13 19:14:00,-6.2,-14.3,29.49,West,270,0.0,-999.0,67,-99.99,,,0.00,Acu-Link.com,2013-01-14 02:14:00,
2013-01-13 19:29:00,-7.4,-15.7,29.48,West,270,0.0,-999.0,66,-99.99,,,0.00,Acu-Link.com,2013-01-14 02:29:00,
2013-01-13 19:44:00,-8.3,-16.3,29.50,West,270,0.0,-999.0,67,-99.99,,,0.00,Acu-Link.com,2013-01-14 02:44:00,
2013-01-13 20:00:00,-8.9,-17.4,29.49,West,270,0.0,-999.0,65,-99.99,,,0.00,Acu-Link.com,2013-01-14 03:00:00,
2013-01-13 20:15:00,-9.2,-17.4,29.48,West,270,0.0,-999.0,66,-99.99,,,0.00,Acu-Link.com,2013-01-14 03:15:00,
2013-01-13 20:30:00,-8.7,-16.7,29.49,West,270,0.0,-999.0,67,-99.99,,,0.00,Acu-Link.com,2013-01-14 03:30:00,
2013-01-13 20:46:00,-8.1,-15.8,29.50,West,270,0.0,-999.0,68,-99.99,,,0.00,Acu-Link.com,2013-01-14 03:46:00,
2013-01-13 21:01:00,-8.0,-15.7,29.49,WNW,292,0.0,-999.0,68,-99.99,,,0.00,Acu-Link.com,2013-01-14 04:01:00,
2013-01-13 21:16:00,-7.8,-15.5,29.48,West,270,0.0,-999.0,68,-99.99,,,0.00,Acu-Link.com,2013-01-14 04:16:00,
2013-01-13 21:31:00,-7.8,-15.8,29.47,WSW,247,0.0,-999.0,67,-99.99,,,0.00,Acu-Link.com,2013-01-14 04:31:00,
2013-01-13 21:46:00,-8.7,-16.9,29.49,WNW,292,0.0,-999.0,66,-99.99,,,0.00,Acu-Link.com,2013-01-14 04:46:00,
2013-01-13 22:02:00,-9.4,-17.6,29.47,West,270,0.0,-999.0,66,-99.99,,,0.00,Acu-Link.com,2013-01-14 05:02:00,
2013-01-13 22:17:00,-10.5,-19.0,29.48,SW,225,0.0,-999.0,65,-99.99,,,0.00,Acu-Link.com,2013-01-14 05:17:00,
2013-01-13 22:32:00,-12.5,-21.5,29.47,WNW,292,0.0,-999.0,63,-99.99,,,0.00,Acu-Link.com,2013-01-14 05:32:00,
2013-01-13 22:48:00,-13.7,-22.6,29.47,SW,225,0.0,-999.0,63,-99.99,,,0.00,Acu-Link.com,2013-01-14 05:48:00,
2013-01-13 23:03:00,-14.8,-24.0,29.46,WSW,247,0.0,-999.0,62,-99.99,,,0.00,Acu-Link.com,2013-01-14 06:03:00,
2013-01-13 23:18:00,-15.7,-24.8,29.47,West,270,0.0,-999.0,62,-99.99,,,0.00,Acu-Link.com,2013-01-14 06:18:00,
2013-01-13 23:34:00,-16.6,-25.7,29.49,West,270,0.0,-999.0,62,-99.99,,,0.00,Acu-Link.com,2013-01-14 06:34:00,
2013-01-13 23:49:00,-17.0,-26.1,29.47,West,270,0.0,-999.0,62,-99.99,,,0.00,Acu-Link.com,2013-01-14 06:49:00,